This demonstration page uses our WeatherBlox Daily Observations layout. Learn more.

Left ArrowRight Arrow

40.92945, -100.16068

Hourly Observations for November 16, 2020

Temp ( °F °C ) Dew Point ( °F °C ) Humidity (%) Winds ( mph kmh ) Pressure ( in mb ) Visibility ( mi km ) Precip ( " mm )
12:15 am 00:15 Clear 29 -1.7 18 -7.6 64 64 WSW 3 6 30.17 1022 10 16.0934 0 0
12:35 am 00:35 Clear 30 -1.3 20 -6.9 66 66 Calm 30.17 1022 10 16.0934 0 0
12:55 am 00:55 Clear 28 -2.3 21 -6.2 75 75 NW 5 7 30.18 1022 10 16.0934 0 0
1:15 am 01:15 Clear 26 -3.1 20 -6.8 76 76 NW 6 9 30.19 1022 10 16.0934 0 0
1:35 am 01:35 Clear 28 -2.5 20 -6.7 73 73 NW 7 11 30.18 1022 10 16.0934 0 0
1:55 am 01:55 Clear 30 -1.3 20 -6.9 66 66 WNW 8 13 30.17 1022 10 16.0934 0 0
2:15 am 02:15 Clear 29 -1.7 19 -7 67 67 WNW 6 9 30.17 1022 10 16.0934 0 0
2:35 am 02:35 Clear 28 -2.3 20 -6.4 74 74 WNW 5 7 30.19 1022 10 16.0934 0 0
2:55 am 02:55 Clear 27 -3 20 -6.8 75 75 NW 5 7 30.21 1023 10 16.0934 0 0
3:15 am 03:15 Clear 27 -3 19 -7.2 73 73 NW 3 6 30.21 1023 10 16.0934 0 0
3:35 am 03:35 Clear 26 -3.5 19 -7.2 76 76 NW 5 7 30.22 1023 10 16.0934 0 0
3:55 am 03:55 Clear 25 -3.7 19 -7.2 77 77 WNW 6 9 30.22 1024 10 16.0934 0 0
4:15 am 04:15 Clear 24 -4.3 19 -7.4 79 79 W 7 11 30.22 1023 10 16.0934 0 0
4:35 am 04:35 Clear 25 -3.8 20 -6.5 82 82 W 8 13 30.23 1024 10 16.0934 0 0
4:55 am 04:55 Clear 26 -3.2 21 -6.2 80 80 W 7 11 30.22 1023 10 16.0934 0 0
5:15 am 05:15 Clear 26 -3.5 20 -6.6 79 79 W 8 13 30.23 1024 10 16.0934 0 0
5:35 am 05:35 Clear 29 -1.9 23 -5.2 78 78 WNW 9 15 30.23 1024 10 16.0934 0 0
5:55 am 05:55 Clear 29 -1.5 24 -4.7 79 79 WNW 8 13 30.23 1024 10 16.0934 0 0
6:15 am 06:15 Clear 27 -2.6 23 -5.1 83 83 WNW 10 17 30.24 1024 10 16.0934 0 0
6:35 am 06:35 Clear 28 -2.1 23 -4.9 81 81 W 10 17 30.25 1024 10 16.0934 0 0
6:55 am 06:55 Clear 27 -3 22 -5.4 84 84 W 12 19 30.27 1025 10 16.0934 0 0
7:15 am 07:15 Clear 29 -1.6 24 -4.3 82 82 W 10 17 30.27 1025 10 16.0934 0 0
7:35 am 07:35 Sunny 29 -1.6 25 -4 84 84 WNW 12 19 30.27 1025 10 16.0934 0 0
7:55 am 07:55 Sunny 31 -0.8 26 -3.5 82 82 WNW 12 19 30.29 1026 10 16.0934 0 0
8:15 am 08:15 Sunny 32 -0.1 27 -2.8 82 82 WNW 13 20 30.3 1026 10 16.0934 0 0
8:35 am 08:35 Sunny 34 1 28 -2 81 81 WNW 12 19 30.3 1026 10 16.0934 0 0
8:55 am 08:55 Sunny 36 2.1 30 -1.2 79 79 WNW 9 15 30.31 1026 10 16.0934 0 0
9:15 am 09:15 Sunny 38 3.2 30 -0.9 75 75 W 10 17 30.31 1026 10 16.0934 0 0
9:35 am 09:35 Sunny 41 4.8 31 -0.8 67 67 WNW 12 19 30.31 1026 10 16.0934 0 0
9:55 am 09:55 Sunny 43 6 31 -0.5 63 63 WNW 14 22 30.31 1026 10 16.0934 0 0
10:15 am 10:15 Sunny 45 7.2 32 -0.1 60 60 NW 10 17 30.31 1026 10 16.0934 0 0
10:35 am 10:35 Sunny 48 8.8 32 0 54 54 NW 7 11 30.29 1026 10 16.0934 0 0
10:55 am 10:55 Sunny 50 10.2 32 0 49 49 WNW 10 17 30.29 1026 10 16.0934 0 0
11:15 am 11:15 Sunny 52 11 31 -0.4 46 46 WNW 6 9 30.28 1025 10 16.0934 0 0
11:35 am 11:35 Sunny 53 11.7 31 -0.5 43 43 WNW 6 9 30.29 1026 10 16.0934 0 0
11:55 am 11:55 Sunny 55 12.8 26 -3.1 33 33 NW 9 15 30.27 1025 10 16.0934 0 0
12:15 pm 12:15 Sunny 56 13.1 25 -3.7 31 31 NNW 13 20 30.26 1025 10 16.0934 0 0
12:35 pm 12:35 Sunny 56 13.4 25 -3.9 30 30 N 13 20 30.26 1025 10 16.0934 0 0
12:55 pm 12:55 Sunny 56 13.2 25 -4.1 30 30 NNW 9 15 30.25 1024 10 16.0934 0 0
1:15 pm 13:15 Sunny 56 13.4 26 -3.5 31 31 NNW 9 15 30.26 1025 10 16.0934 0 0
1:35 pm 13:35 Sunny 57 13.7 24 -4.2 29 29 NNW 8 13 30.25 1024 10 16.0934 0 0
1:55 pm 13:55 Sunny 57 14 25 -3.8 29 29 NNW 9 15 30.24 1024 10 16.0934 0 0
2:15 pm 14:15 Sunny 58 14.4 25 -3.8 28 28 NW 10 17 30.24 1024 10 16.0934 0 0
2:35 pm 14:35 Sunny 58 14.5 23 -5.1 26 26 NW 9 15 30.24 1024 10 16.0934 0 0
2:55 pm 14:55 Sunny 58 14.3 23 -4.8 26 26 WNW 5 7 30.24 1024 10 16.0934 0 0
3:15 pm 15:15 Sunny 58 14.6 23 -4.9 26 26 WNW 8 13 30.24 1024 10 16.0934 0 0
3:35 pm 15:35 Sunny 58 14.5 24 -4.7 26 26 NW 7 11 30.24 1024 10 16.0934 0 0
3:55 pm 15:55 Sunny 58 14.5 23 -5.2 25 25 NW 6 9 30.25 1024 10 16.0934 0 0
4:15 pm 16:15 Sunny 57 14.1 25 -3.7 29 29 WNW 6 9 30.25 1024 10 16.0934 0 0
4:35 pm 16:35 Sunny 56 13.6 22 -5.4 27 27 Calm 30.26 1025 10 16.0934 0 0
4:55 pm 16:55 Sunny 54 12.2 21 -6 28 28 NW 3 6 30.27 1025 10 16.0934 0 0
5:15 pm 17:15 Sunny 51 10.4 22 -5.4 33 33 Calm 30.3 1026 10 16.0934 0 0
5:35 pm 17:35 Clear 47 8.4 25 -3.9 42 42 Calm 30.33 1027 7 11.26538 0 0
5:55 pm 17:55 Hazy 47 8.5 24 -4.6 40 40 Calm 30.33 1027 5 8.0467 0 0
6:15 pm 18:15 Clear 45 7.2 23 -5.1 42 42 Calm 30.34 1027 7 11.26538 0 0
6:35 pm 18:35 Clear 43 6 23 -4.8 46 46 Calm 30.37 1028 10 16.0934 0 0
6:55 pm 18:55 Clear 40 4.5 25 -4.1 54 54 S 3 6 30.38 1029 10 16.0934 0 0
7:15 pm 19:15 Clear 38 3.5 25 -4.1 58 58 S 5 7 30.4 1030 7 11.26538 0 0
7:35 pm 19:35 Clear 38 3.5 25 -3.8 59 59 Calm 30.4 1030 7 11.26538 0 0
7:55 pm 19:55 Clear 38 3.6 25 -4.1 58 58 Calm 30.4 1030 7 11.26538 0 0
8:15 pm 20:15 Clear 36 2.1 25 -3.8 65 65 NE 10 17 30.42 1030 10 16.0934 0 0
8:35 pm 20:35 Clear 34 1.3 25 -4.1 68 68 E 5 7 30.44 1031 10 16.0934 0 0
8:55 pm 20:55 Clear 34 0.9 24 -4.3 69 69 Calm 30.45 1031 10 16.0934 0 0
9:15 pm 21:15 Clear 32 0 24 -4.2 74 74 SW 5 7 30.47 1032 10 16.0934 0 0
9:35 pm 21:35 Clear 31 -0.6 23 -5 72 72 SSW 5 7 30.48 1032 10 16.0934 0 0
9:55 pm 21:55 Clear 31 -0.5 26 -3.4 81 81 Calm 30.49 1033 10 16.0934 0 0
10:15 pm 22:15 Clear 29 -1.4 24 -4.4 80 80 Calm 30.51 1033 10 16.0934 0 0
10:35 pm 22:35 Partly Cloudy 30 -1.3 24 -4.4 80 80 Calm 30.51 1033 10 16.0934 0 0
10:55 pm 22:55 Cloudy 32 -0.2 26 -3.3 80 80 NNE 3 6 30.5 1033 10 16.0934 0 0
11:15 pm 23:15 Cloudy 31 -0.4 26 -3.3 81 81 Calm 30.5 1033 10 16.0934 0 0
11:35 pm 23:35 Cloudy 32 -0.1 28 -2.4 85 85 Calm 30.5 1033 10 16.0934 0 0
11:55 pm 23:55 Cloudy 32 0 27 -2.7 82 82 Calm 30.5 1033 10 16.0934 0 0

Powered by AerisWeather